Regional Weather Roundup
Issued by NWS

Home | Current Version | Previous Version | Graphics & Text | Print | Product List | Glossary On
Versions: 1 2 3 4 5 6 7 8 9 10 11 12 13 14 15 16 17 18 19 20 21 22 23 24 25 26 27 28 29 30 31 32 33 34 35 36 37 38 39 40 41 42 43 44 45 46 47 48 49 50
408
ASUS45 KBOU 211407
RWRCO

WEATHER ROUNDUP FOR COLORADO
NATIONAL WEATHER SERVICE DENVER/BOULDER CO
800 AM MDT FRI JUL 21 2017

NOTE: "FAIR" INDICATES FEW OR NO CLOUDS BELOW 12000 FEET WITH NO
SIGNIFICANT WEATHER AND/OR OBSTRUCTIONS TO VISIBILITY.

COZ001>005-013-030-031-211500-
...NORTHWEST COLORADO...

CITY           SKY/WX    TMP DP  RH WIND       PRES   REMARKS
CRAIG          FAIR      69  50  50 E7        30.24R
HAYDEN         FAIR      64  46  52 E14       30.27R
MEEKER         FAIR      66  54  65 CALM      30.26S
RABBIT EARS PA FAIR      54  45  71 SW5       30.55S
STEAMBOAT SPGS FAIR      56  49  76 CALM      30.29S
WALDEN         FAIR      54  46  76 S5        30.39R
$$

COZ006>008-011-211500-
...WEST CENTRAL VALLEYS...

CITY           SKY/WX    TMP DP  RH WIND       PRES   REMARKS
GRAND JUNCTION FAIR      73  56  54 S8        30.13F
MONTROSE       PTSUNNY   68  51  54 S8        30.25R
EAGLE          SUNNY     63  50  63 CALM      30.33S
RIFLE          FAIR      68  55  63 N3        30.22S
DELTA          FAIR      70  52  53 CALM      30.21R
NUCLA          NOT AVBL
$$

COZ017>023-064>068-211500-
...SOUTHWEST COLORADO...

CITY           SKY/WX    TMP DP  RH WIND       PRES   REMARKS
DURANGO        FAIR      62  51  67 CALM      30.30S
CORTEZ         FAIR      61  58  90 CALM      30.25R
PAGOSA SPRINGS FAIR      61  48  63 CALM      30.38S
TELLURIDE      CLOUDY    55  48  75 S3        30.48R
WOLF CREEK PAS FAIR      50  45  81 CALM      30.71R
$$

COZ009-010-012-014-032>034-037-058>063-211500-
...CENTRAL COLORADO...

CITY           SKY/WX    TMP DP  RH WIND       PRES   REMARKS
ASPEN          FAIR      61  50  67 N5        30.37R
BUENA VISTA    FAIR      59  48  65 CALM      30.38F
COPPER MTN     FAIR      54  41  62 W3        30.68S
BERTHOUD PASS  FAIR      43  30  61 NW14G24   30.69R
COTTONWOOD PAS FAIR      61  43  51 CALM      30.51S
GUNNISON       FAIR      56  48  74 CALM      30.41R
KREMMLING      FAIR      59  52  77 CALM      30.38S
LEADVILLE      FAIR      56  44  64 CALM      30.48F
MONARCH PASS   FAIR      48  41  76 SW12      30.77S
SALIDA         FAIR      62  50  64 CALM      30.43S
SUNLIGHT       FAIR      54  43  66 CALM      30.60S
WILKERSON PASS FAIR      57  37  47 N3        30.64S
$$

COZ069>075-211500-
...SAN LUIS VALLEY/SANGRE DE CRISTO MOUNTAINS...

CITY           SKY/WX    TMP DP  RH WIND       PRES   REMARKS
ALAMOSA        FAIR      62  51  67 CALM      30.36R
DEL NORTE      FAIR      60  47  62 W7        30.40S
LA VETA PASS   NOT AVBL
SAGUACHE         N/A    N/A N/A N/A MISG        N/A
$$

COZ035-036-038>040-211500-
...NORTHERN COLORADO FRONT RANGE...

CITY           SKY/WX    TMP DP  RH WIND       PRES   REMARKS
DENVER INTL AP FAIR      73  53  49 SW12      30.14F
DMNS CITY PARK   N/A     73  53  48 SW5       30.15S
AURORA         MOSUNNY   71  55  58 SW10      30.17F
FRONT RANGE AP MOSUNNY   73  54  49 S14       30.16S
ERIE MUNI ARPT FAIR      74  49  40 S10       30.12F
BOULDER MUN AP FAIR      72  50  46 CALM      30.13F
CENTENNIAL     PTSUNNY   72  53  51 W9        30.19S
BROOMFIELD     FAIR      73  50  43 S8        30.17S
FORT COLLINS   FAIR      71  55  56 S15       30.10F
LONGMONT       FAIR      73  57  57 CALM      30.13F
$$

COZ041-046-047-076>085-087-088-211500-
...PIKES PEAK/PALMER DIVIDE AND SOUTHERN FOOTHILLS...

CITY           SKY/WX    TMP DP  RH WIND       PRES   REMARKS
COLO. SPRINGS  FAIR      77  50  38 N17       30.20R
A. F. ACADEMY  FAIR      71  50  48 N13       30.22S
SCHRIEVER AFB  FAIR      73  48  40 N14       30.20S
CHEYENNE MTN   FAIR      77  43  29 N8        30.20R
ELLICOTT       FAIR     N/A N/A N/A N15       30.18S
FALCON           N/A     71  47  43 NW12G20   30.26S
FORT CARSON    FAIR      74  50  43 N12       30.16R
LIMON          FAIR      74  59  59 NW9       30.14S
MONUMENT HILL  FAIR      64  50  59 W10       30.29S
CANON CITY     SUNNY     75  54  46 W15       30.14R
WALSENBURG     FAIR      81  48  32 MISG      30.19S
TRINIDAD       FAIR      74  48  39 W12       30.17S
$$

COZ042>045-048>051-090-091-211500-
...NORTHEAST COLORADO...

CITY           SKY/WX    TMP DP  RH WIND       PRES   REMARKS
GREELEY ARPT   FAIR      72  57  59 SW9       30.09F
AKRON          FAIR      78  54  43 NW8       30.06S
BURLINGTON     FAIR      76  60  57 NW7       30.02S
WRAY           NOT AVBL
YUMA           NOT AVBL
STERLING       FAIR      72  61  68 SW6       30.01S
HOLYOKE        FAIR      81  59  47 NW5       29.97F
FORT MORGAN    FAIR      73  55  51 W12       30.07S
$$

COZ086-089-092>099-211500-
...SOUTHEAST COLORADO...

CITY           SKY/WX    TMP DP  RH WIND       PRES   REMARKS
PUEBLO         FAIR      79  51  37 VRB3      30.09R
LA JUNTA       FAIR      77  57  50 NW9       30.06R
LAMAR          FAIR      74  58  57 W8        30.00R
SPRINGFIELD      N/A     79  56  45 SW13      30.06S
$$




USA.gov is the U.S. government's official web portal to all federal, state and local government web resources and services.